Location: Cahas Mountain Overlook
(37.0833°N, 80.1000°W)
Time: 19:33:43
(UTC-04:00)

SR - Pass Details

Date: 08 February 2026
Orbit: 572 x 849 km, 66.7° (Epoch: 12 March)

Event Time Altitude Azimuth Distance (km) Brightness Sun altitude
Rises 06:47:52 0° 204° (SSW) 2,765 ? -6.3°
Reaches altitude 10° 06:50:04 10° 204° (SSW) 1,866 ? -5.9°
Maximum altitude 06:54:13 83° 117° (ESE) 583 ? -5.1°
Drops below altitude 10° 06:58:29 10° 29° (NNE) 1,917 ? -4.3°
Sets 07:00:46 0° 29° (NNE) 2,848 ? -3.8°
